Wind_Speed
27 31 33 34 37 36 33 32 32 33 32 34 37 37 37 36 36 34 33 32 32 34 37 40 40 39 37 33 28 28 24 23 22 24 24 24 24 22 28 26 30 33 38
18 27 31 34 34 36 36 34 31 32 34 32 33 36 38 37 38 36 34 32 32 37 34 30 30 30 26 20 24 25 25 24 24 24 11 13 19 20 22 23 24 31 29
13 18 25 27 26 26 24 25 25 23 24 29 27 28 31 33 36 38 37 37 37 26 23 25 28 23 15 12 14 17 13 12 13 21 17 17 18 20 24 20 19 20 32
7 11 16 20 18 15 16 16 13 12 14 14 13 13 23 27 31 33 36 32 28 24 24 27 25 21 15 11 19 16 18 21 25 22 24 26 26 27 20 19 20 32 26
18 8 11 15 16 14 14 12 3 6 11 13 20 20 21 21 19 21 25 25 26 26 28 31 30 25 23 25 24 30 30 34 29 35 30 25 24 23 23 27 32 37 36
22 17 10 11 16 10 7 7 14 20 29 24 29 31 26 25 27 26 25 24 25 29 32 33 36 37 36 30 26 29 35 34 42 43 45 45 39 33 34 45 39 36 36
24 15 14 14 15 9 11 23 26 42 39 46 36 44 33 35 36 36 37 35 35 34 35 36 39 42 43 45 41 39 40 43 45 48 39 55 52 56 52 51 48 51 45
26 20 22 23 14 22 31 35 41 49 55 54 55 55 53 46 43 46 45 45 43 43 42 43 43 44 45 45 50 52 52 49 54 45 56 44 52 50 52 58 54 53 47
29 24 29 34 37 38 43 49 55 59 57 56 57 56 53 56 48 50 50 55 57 57 59 58 56 56 51 57 61 64 61 55 59 53 51 52 53 57 62 65 65 59 59
31 29 29 35 50 52 52 58 59 62 66 69 64 62 65 63 57 58 58 62 56 63 66 65 59 57 59 61 60 59 69 66 62 63 61 51 57 63 67 63 63 63 63
39 39 37 36 39 52 61 63 65 68 68 70 69 68 70 71 70 68 64 62 60 56 64 68 67 66 64 65 65 63 66 65 64 63 61 61 60 65 68 68 66 68 62
47 45 46 46 44 46 49 63 71 74 77 80 80 75 74 73 75 72 67 57 57 59 61 66 66 67 67 65 69 67 66 67 69 67 66 66 68 66 68 67 67 69 66
55 54 54 53 51 51 48 53 56 65 71 73 73 68 68 75 76 76 72 63 64 63 69 68 70 70 69 67 68 71 68 67 68 68 71 75 75 76 74 72 70 73 70
61 60 60 62 61 55 50 49 54 58 58 59 62 53 49 57 60 70 72 72 71 64 71 77 74 75 77 74 75 75 82 81 80 78 76 80 83 81 78 76 77 75 75
66 68 68 67 62 60 56 53 50 49 49 48 45 44 43 47 52 55 59 58 63 66 72 77 79 76 74 76 77 78 80 80 78 80 85 90 89 84 86 85 83 80 79
73 74 71 66 61 58 55 52 52 52 43 43 44 45 49 51 53 55 57 61 66 72 73 75 78 79 74 73 76 82 83 85 89 91 93 90 89 88 87 90 86 83 82
78 77 74 70 64 58 54 53 51 52 51 46 49 47 48 50 51 54 55 59 65 71 75 78 78 77 81 83 86 87 90 90 89 86 84 92 94 96 93 89 88 90 94
79 74 70 67 62 56 53 51 48 48 48 46 49 56 57 58 59 61 63 66 69 72 71 75 80 82 84 87 89 88 90 94 98 101 99 100 100 99 100 104 105 103 101
75 69 64 58 56 52 49 47 47 43 45 48 50 57 60 67 69 71 71 74 76 80 84 85 87 87 89 92 97 100 102 103 104 107 109 107 106 109 112 108 107 110 111
70 65 57 50 49 47 45 47 45 45 47 47 52 56 59 65 70 76 80 82 85 87 89 94 97 100 104 107 109 111 112 114 115 115 117 118 117 119 119 118 116 114 111
65 58 51 47 42 40 42 45 47 48 48 49 53 56 59 63 65 71 75 80 88 93 98 102 105 110 113 115 117 119 120 121 121 124 124 123 122 120 117 115 115 113 109
60 57 55 54 51 50 47 46 45 47 49 51 53 58 59 62 65 70 74 78 84 90 95 99 101 102 105 107 109 111 113 113 111 111 111 111 110 110 111 112 112 110 109
60 60 60 59 57 56 56 56 56 57 58 59 60 62 64 67 68 70 72 75 77 80 83 86 89 92 93 95 97 100 102 104 106 107 108 108 108 108 107 105 101 97 93
61 61 61 62 63 64 65 66 66 66 66 67 68 70 71 74 76 78 80 83 85 87 89 91 93 95 97 98 100 101 101 101 102 101 99 94 91 90 88 87 84 82 80
64 66 66 67 68 69 68 67 67 66 64 62 62 63 65 67 69 71 73 75 77 79 81 82 84 85 85 86 86 86 85 84 85 84 82 79 79 78 77 76 73 71 70
67 69 69 69 68 69 65 58 54 51 50 50 51 52 53 55 57 60 62 65 67 68 70 71 72 72 73 73 73 73 73 72 71 71 69 69 69 70 70 70 70 68 66
Wind_Direction
251 245 240 237 238 244 249 254 258 258 254 253 253 254 254 256 262 264 261 259 264 269 275 275 275 276 280 276 272 273 273 270 269 270 278 277 280 294 304 318 316 319 313
253 245 243 243 240 239 247 259 266 263 260 253 251 255 257 258 258 258 257 260 265 275 277 273 272 274 271 271 273 279 286 282 277 268 244 273 284 282 297 300 308 304 304
258 252 249 247 246 248 252 261 263 259 257 260 264 261 252 255 252 253 255 262 267 266 268 266 263 259 262 281 286 298 282 262 264 255 235 300 305 287 283 290 297 310 301
314 259 246 239 239 247 236 243 260 256 261 253 246 263 260 258 261 262 259 259 253 255 258 246 249 243 240 244 283 269 267 283 279 261 249 292 287 290 294 305 300 312 291
328 299 255 235 216 202 195 207 187 290 253 251 259 260 261 257 254 264 260 254 257 256 246 241 242 242 229 240 278 267 285 279 271 261 255 291 288 295 292 297 300 307 287
335 310 281 238 236 219 212 256 288 301 293 273 268 255 257 250 249 249 252 251 252 254 249 249 249 252 246 246 256 270 273 281 267 280 258 281 284 295 295 305 301 294 298
322 287 274 283 310 233 261 273 269 280 265 273 271 267 256 259 257 257 257 257 261 262 273 276 275 271 267 255 260 267 276 277 270 283 264 279 278 285 287 298 295 306 286
319 287 274 266 262 226 240 252 256 263 268 262 265 266 264 262 260 261 263 265 260 264 264 267 276 273 265 261 262 269 276 277 278 271 268 275 283 288 286 293 294 293 296
306 299 282 269 258 248 248 250 254 261 264 263 267 262 261 262 268 261 265 262 262 266 271 268 272 276 270 274 279 276 272 275 272 270 269 273 281 285 286 286 288 296 292
312 297 292 273 254 259 263 255 261 259 259 261 265 265 269 262 265 275 270 270 272 268 270 268 270 266 274 277 277 273 266 269 269 269 268 275 280 289 293 293 292 296 294
312 311 303 292 272 261 257 256 256 258 261 262 264 269 266 265 269 271 272 276 276 276 265 262 268 268 271 268 269 271 270 269 265 267 262 277 284 292 289 291 291 292 289
312 310 308 304 299 285 273 261 258 261 263 264 267 267 264 264 269 267 266 272 273 274 265 264 267 269 270 269 272 274 272 274 273 268 272 280 287 286 287 284 285 289 287
313 312 312 310 305 298 284 273 270 265 266 267 270 270 270 266 265 264 263 265 264 264 261 264 264 266 271 268 273 272 273 274 273 268 279 280 286 285 284 282 281 283 285
313 313 313 312 310 306 303 292 276 269 270 270 267 269 259 266 259 256 259 262 260 257 256 260 262 264 269 271 268 267 269 270 273 274 273 280 284 284 279 282 285 282 284
313 313 313 311 309 306 303 296 293 284 278 274 262 253 253 256 259 260 258 255 254 252 252 254 260 261 264 267 264 263 265 269 270 271 275 280 283 281 281 281 282 281 281
313 314 312 310 306 302 298 292 290 286 279 266 252 251 250 253 254 256 258 256 252 248 248 251 253 259 258 257 259 262 263 267 273 276 278 278 282 281 281 280 280 278 278
315 316 314 310 307 303 298 291 284 277 274 265 251 243 250 253 254 253 251 251 251 252 254 254 256 255 255 256 259 262 269 272 273 273 272 275 276 277 277 276 277 281 281
315 314 310 307 304 301 298 289 283 278 269 257 246 239 239 243 246 248 250 250 248 248 249 251 253 255 258 261 262 263 266 269 270 272 273 274 274 273 273 276 276 276 281
315 313 311 305 299 297 294 287 283 278 273 259 248 243 242 240 244 244 247 249 250 251 251 251 252 256 260 262 263 264 266 267 268 269 270 273 274 275 276 277 279 281 279
317 317 315 309 304 297 292 287 281 278 277 270 260 256 252 249 248 247 249 251 252 252 253 254 255 256 257 260 263 265 267 268 269 271 272 274 276 278 278 277 277 279 278
316 317 317 315 313 304 298 291 287 283 278 275 270 267 263 260 256 256 256 256 256 257 259 259 260 262 263 264 264 266 268 270 271 273 275 274 274 275 275 276 276 277 278
318 316 315 314 312 308 303 298 294 289 287 284 280 277 273 270 268 265 263 263 261 261 260 260 261 263 264 264 265 266 267 269 270 272 273 275 277 278 278 278 279 279 279
315 313 312 311 309 307 305 302 299 295 291 288 285 282 281 280 278 276 275 273 272 271 270 270 270 271 271 271 272 273 273 274 274 275 277 278 279 279 279 280 280 280 280
311 310 310 309 308 307 304 302 299 297 293 291 289 287 285 283 281 280 280 279 278 278 277 277 277 277 277 276 276 276 277 277 278 278 279 280 280 281 280 280 280 281 281
312 311 309 309 308 307 305 303 301 300 298 296 294 293 291 289 288 286 285 284 283 282 281 281 280 281 281 281 281 282 283 283 283 284 284 285 284 284 284 284 284 283 283
309 309 309 309 310 309 309 309 311 313 313 312 311 309 307 305 302 299 296 294 291 290 289 288 288 287 286 287 287 287 287 286 285 284 285 284 285 285 286 286 286 285 283
Height
10925 10927 10929 10930 10933 10937 10939 10940 10942 10943 10945 10947 10948 10950 10952 10952 10952 10952 10951 10952 10952 10952 10950 10949 10947 10945 10944 10941 10937 10935 10935 10935 10935 10934 10933 10933 10929 10926 10922 10921 10917 10916 10913
10919 10920 10922 10923 10925 10926 10928 10931 10932 10934 10936 10937 10937 10939 10941 10942 10943 10944 10944 10944 10942 10940 10939 10937 10935 10935 10935 10934 10931 10929 10927 10926 10926 10927 10928 10926 10924 10923 10917 10915 10911 10909 10906
10912 10912 10915 10918 10920 10922 10924 10925 10926 10926 10928 10930 10930 10930 10929 10931 10931 10933 10934 10934 10933 10929 10929 10928 10926 10926 10926 10925 10925 10926 10926 10926 10924 10922 10921 10921 10918 10915 10912 10910 10907 10905 10897
10910 10910 10910 10912 10916 10919 10919 10920 10922 10923 10924 10922 10921 10922 10923 10922 10924 10925 10924 10925 10924 10921 10919 10920 10920 10919 10919 10921 10922 10923 10922 10922 10920 10917 10916 10914 10911 10907 10905 10902 10899 10895 10889
10910 10908 10908 10910 10910 10912 10915 10916 10918 10918 10919 10918 10918 10916 10915 10915 10913 10914 10916 10917 10916 10914 10913 10912 10913 10912 10911 10911 10914 10916 10917 10915 10913 10911 10906 10905 10904 10899 10893 10890 10886 10882 10879
10906 10906 10906 10905 10908 10911 10913 10914 10915 10913 10911 10908 10911 10908 10908 10909 10908 10906 10904 10905 10906 10907 10906 10904 10903 10904 10904 10902 10902 10902 10902 10904 10902 10901 10896 10895 10892 10889 10884 10880 10874 10870 10867
10903 10903 10904 10905 10908 10908 10908 10908 10904 10902 10899 10901 10899 10901 10897 10900 10900 10899 10898 10897 10896 10897 10898 10897 10896 10893 10892 10891 10890 10888 10888 10888 10888 10887 10884 10883 10879 10875 10870 10866 10861 10858 10854
10901 10899 10899 10900 10902 10901 10898 10897 10890 10886 10886 10887 10887 10888 10890 10890 10889 10891 10890 10889 10888 10887 10886 10885 10884 10884 10882 10881 10879 10876 10874 10873 10872 10872 10871 10867 10865 10860 10856 10852 10848 10842 10839
10896 10896 10895 10894 10891 10889 10885 10884 10879 10879 10874 10874 10875 10876 10877 10878 10877 10877 10877 10877 10877 10875 10873 10871 10870 10868 10868 10868 10866 10864 10861 10860 10857 10855 10852 10850 10847 10844 10839 10835 10831 10826 10822
10889 10887 10884 10882 10879 10875 10874 10869 10865 10863 10862 10860 10861 10861 10861 10862 10861 10862 10862 10861 10861 10859 10855 10854 10853 10851 10850 10849 10847 10845 10843 10841 10841 10838 10835 10831 10830 10826 10822 10818 10813 10809 10804
10878 10874 10871 10868 10865 10861 10857 10854 10849 10846 10843 10843 10842 10844 10845 10845 10846 10844 10843 10839 10842 10839 10836 10834 10834 10833 10831 10828 10826 10826 10825 10823 10821 10820 10816 10814 10812 10809 10804 10799 10795 10790 10785
10866 10862 10857 10852 10850 10845 10839 10836 10831 10828 10826 10823 10822 10824 10824 10825 10825 10826 10825 10823 10820 10819 10817 10817 10815 10815 10812 10810 10808 10807 10805 10804 10801 10798 10796 10792 10791 10788 10786 10781 10777 10773 10769
10852 10847 10841 10835 10831 10825 10823 10819 10812 10809 10806 10803 10800 10800 10799 10797 10800 10801 10804 10806 10804 10802 10797 10797 10797 10795 10793 10793 10791 10789 10786 10783 10780 10778 10775 10772 10769 10766 10763 10760 10758 10754 10749
10838 10832 10825 10817 10810 10805 10800 10795 10791 10789 10786 10784 10783 10782 10780 10776 10778 10779 10780 10782 10782 10781 10780 10778 10778 10776 10776 10774 10772 10768 10764 10762 10758 10757 10754 10750 10746 10743 10741 10737 10733 10730 10726
10823 10815 10808 10800 10793 10784 10779 10773 10768 10766 10765 10764 10763 10762 10762 10761 10761 10760 10761 10762 10762 10761 10760 10758 10757 10755 10753 10751 10748 10744 10740 10737 10734 10732 10730 10727 10723 10720 10715 10713 10709 10706 10701
10805 10796 10788 10780 10774 10767 10761 10757 10752 10748 10747 10746 10746 10746 10746 10744 10743 10743 10742 10742 10741 10739 10738 10736 10734 10732 10728 10726 10723 10719 10714 10712 10710 10707 10703 10699 10696 10695 10691 10687 10684 10679 10676
10786 10777 10767 10757 10753 10747 10741 10736 10734 10730 10727 10727 10726 10726 10728 10726 10725 10723 10723 10722 10721 10721 10719 10717 10713 10709 10706 10703 10699 10696 10692 10689 10685 10682 10677 10673 10669 10666 10662 10658 10656 10654 10649
10771 10761 10750 10741 10733 10728 10723 10718 10714 10712 10709 10707 10707 10707 10707 10707 10707 10705 10703 10701 10698 10696 10694 10691 10687 10684 10681 10677 10674 10669 10665 10662 10659 10655 10651 10647 10642 10636 10631 10631 10626 10623 10621
10752 10741 10732 10723 10715 10709 10704 10699 10697 10695 10692 10692 10689 10688 10686 10685 10684 10684 10682 10680 10677 10674 10670 10666 10661 10657 10654 10650 10646 10643 10638 10632 10628 10623 10621 10615 10613 10608 10603 10599 10593 10590 10588
10729 10722 10714 10708 10700 10694 10689 10684 10680 10677 10674 10672 10671 10668 10666 10664 10661 10658 10655 10653 10651 10648 10643 10638 10632 10628 10625 10620 10615 10610 10606 10601 10596 10592 10588 10584 10580 10574 10573 10565 10561 10556 10551
10715 10706 10700 10692 10688 10683 10677 10672 10666 10662 10658 10655 10651 10648 10646 10643 10639 10636 10632 10627 10623 10618 10613 10608 10604 10599 10594 10589 10584 10580 10574 10568 10566 10561 10553 10550 10545 10538 10533 10527 10520 10515 10511
10699 10692 10686 10680 10675 10670 10665 10660 10654 10648 10642 10637 10633 10627 10624 10620 10616 10611 10607 10603 10597 10592 10587 10581 10576 10570 10564 10558 10553 10546 10540 10536 10530 10525 10520 10513 10507 10500 10492 10485 10479 10475 10470
10688 10680 10672 10665 10659 10652 10646 10640 10635 10629 10622 10616 10611 10605 10599 10593 10588 10583 10578 10572 10567 10561 10556 10550 10544 10537 10531 10525 10519 10512 10507 10501 10495 10489 10483 10478 10471 10462 10453 10445 10439 10433 10429
10673 10665 10657 10650 10642 10635 10627 10619 10612 10604 10597 10590 10583 10577 10570 10564 10558 10552 10545 10539 10533 10527 10521 10515 10508 10501 10495 10489 10483 10477 10472 10465 10456 10450 10444 10440 10434 10424 10417 10410 10405 10400 10396
10657 10649 10641 10633 10624 10615 10605 10596 10588 10580 10571 10563 10556 10549 10542 10535 10528 10521 10514 10507 10500 10494 10486 10479 10473 10468 10462 10455 10448 10441 10434 10428 10421 10414 10409 10403 10395 10389 10383 10376 10374 10372 10369
10642 10633 10623 10614 10604 10594 10584 10575 10567 10558 10550 10542 10535 10527 10520 10512 10504 10496 10488 10480 10472 10464 10456 10449 10443 10436 10430 10423 10418 10412 10406 10400 10393 10387 10382 10376 10370 10364 10357 10352 10347 10343 10341